Lafayette, LA

2:51 AM CDT on April 28, 2017 (GMT -0500)
Lafayette Regional

Weather History for KLFT - December, 2013

Change the Weather History Date:

Wednesday, December 25, 2013

  Actual Average Record
Temperature  
Mean Temperature 40 °F 53 °F  
Max Temperature 50 °F 63 °F 80 °F (2015)
Min Temperature 29 °F 43 °F 12 °F (1983)
Degree Days  
Heating Degree Days 25 13  
Month to date heating degree days 340 277  
Since 1 July heating degree days 609 476  
Moisture  
Dew Point 29 °F    
Average Humidity 64    
Maximum Humidity 92    
Minimum Humidity 36    
Precipitation  
Precipitation 0.00 in 0.19 in 2.43 in (1926)
Month to date precipitation 2.26 4.44  
Year to date precipitation 56.03 59.36  
Snow  
Snow 0.00 in 0.00 in T in (1953)
Month to date snowfall 0.0 0.0  
Since 1 July snowfall 0.0 0.0  
Snow Depth 0.00 in    
Sea Level Pressure  
Sea Level Pressure 30.36 in    
Wind  
Wind Speed 3 mph (NNE)    
Max Wind Speed 9 mph    
Max Gust Speed 12 mph    
Visibility 10 miles    
Events      
T = Trace of Precipitation, MM = Missing Value Source: NWS Daily Summary

Daily Weather History Graph

Daily Weather History Graph

Search for Another Location

Airport or City:

Trip Planner

Search our weather history database for the weather conditions in past years. The results will help you decide how hot, cold, wet, or windy it might be!

Date:

Astronomy

Dec. 25, 2013 Rise Set
Actual Time 7:02 AM CST 5:14 PM CST
Civil Twilight 6:35 AM CST 5:40 PM CST
Nautical Twilight 6:05 AM CST 6:10 PM CST
Astronomical Twilight 5:36 AM CST 6:40 PM CST
Moon No Moon Rise 11:57 AM CST (12/25)
Length of Visible Light 11h 05m
Length of Day
10h 12m
Waning Gibbous, 48% of the Moon is Illuminated
Dec 25
Waning Gibbous
Jan 1
New
Jan 7
First Quarter
Jan 15
Full
Jan 23
Last Quarter

Hourly Weather History & Observations

Time (CST) Temp. Windchill Dew Point Humidity Pressure Visibility Wind Dir Wind Speed Gust Speed Precip Events Conditions
12:53 AM 35.1 °F - 33.1 °F 92% 30.36 in 10.0 mi Calm Calm - N/A   Clear
1:53 AM 34.0 °F - 30.9 °F 89% 30.36 in 10.0 mi Calm Calm - N/A   Clear
2:53 AM 32.0 °F 28.7 °F 28.9 °F 88% 30.36 in 10.0 mi NNE 3.5 mph - N/A   Clear
3:53 AM 30.9 °F - 28.9 °F 92% 30.37 in 10.0 mi Calm Calm - N/A   Clear
4:53 AM 30.9 °F 27.5 °F 28.0 °F 89% 30.37 in 10.0 mi NE 3.5 mph - N/A   Clear
5:53 AM 30.0 °F 25.2 °F 27.0 °F 88% 30.38 in 10.0 mi NE 4.6 mph - N/A   Clear
6:53 AM 28.9 °F 23.9 °F 26.1 °F 89% 30.39 in 10.0 mi NE 4.6 mph - N/A   Clear
7:53 AM 32.0 °F 28.7 °F 28.0 °F 85% 30.40 in 10.0 mi NNE 3.5 mph - N/A   Clear
8:53 AM 37.9 °F - 30.0 °F 73% 30.41 in 10.0 mi Calm Calm - N/A   Clear
9:53 AM 42.1 °F 39.2 °F 30.0 °F 62% 30.41 in 10.0 mi ENE 4.6 mph - N/A   Partly Cloudy
10:53 AM 45.0 °F - 28.0 °F 52% 30.40 in 10.0 mi Calm Calm - N/A   Mostly Cloudy
11:53 AM 46.9 °F - 27.0 °F 46% 30.37 in 10.0 mi NNE 3.5 mph - N/A   Scattered Clouds
12:53 PM 48.0 °F - 26.1 °F 42% 30.34 in 10.0 mi ENE 4.6 mph - N/A   Scattered Clouds
1:53 PM 48.9 °F - 25.0 °F 39% 30.33 in 10.0 mi North 8.1 mph - N/A   Mostly Cloudy
2:53 PM 50.0 °F - 24.1 °F 36% 30.32 in 10.0 mi NNE 4.6 mph - N/A   Clear
3:53 PM 48.9 °F - 26.1 °F 41% 30.34 in 10.0 mi North 8.1 mph - N/A   Clear
4:53 PM 46.9 °F - 28.9 °F 50% 30.34 in 10.0 mi NNE 4.6 mph - N/A   Clear
5:53 PM 46.0 °F - 32.0 °F 58% 30.34 in 10.0 mi Calm Calm - N/A   Clear
6:53 PM 42.1 °F - 34.0 °F 73% 30.35 in 10.0 mi Calm Calm - N/A   Clear
7:53 PM 39.9 °F 37.8 °F 35.1 °F 83% 30.36 in 10.0 mi NE 3.5 mph - N/A   Clear
8:53 PM 39.9 °F - 32.0 °F 73% 30.36 in 10.0 mi Calm Calm - N/A   Clear
9:53 PM 39.9 °F 37.8 °F 30.9 °F 70% 30.35 in 10.0 mi NNE 3.5 mph - N/A   Clear
10:53 PM 39.0 °F - 30.9 °F 73% 30.35 in 10.0 mi Calm Calm - N/A   Clear
11:53 PM 39.0 °F - 30.9 °F 73% 30.35 in 10.0 mi Calm Calm - N/A   Clear